星链-11141 [DTC] (STARLINK-11141 [DTC] )

导读 | 星芒AI

STARLINK-11141 [DTC] 是 SpaceX Starlink 卫星互联网项目中的一颗低轨卫星。该卫星属于 Starlink 任务的第 32 批部署,于 2023 年发射,旨在为全球提供高速互联网服务。它运行在约 550 公里的轨道高度,采用先进的推进和通信技术,支持宽带连接。该卫星目前由 SpaceX 运营,并被纳入全球星链网络,以增强覆盖范围和网络性能。

基本信息
目录编号:
60066
目录名称:
STARLINK-11141
国际标识:
2024-113H
轨道中心:
EARTH
卫星名称:
星链-11141 [DTC]
卫星全名:
星链-11141 [DTC] (STARLINK-11141 [DTC] )
卫星状态:
在轨 (已飞行497 天)
发射日期:
2024-06-19 UTC
国别 :
美国 (US)
星等 :
--
轨道信息
数据来源 国际轨道数据 AOE轨道数据
星历时间 2025-10-27T13:33:06+0800
2天前
查看轨道信息
2025-10-26T16:00:00+0800
3天前
查看轨道信息
半长轴 6737.835km 6737.832km
偏心率 0.0000549 0.0000933
轨道倾角 53.158° 53.160°
近地点辐角 69.979° 77.449°
升交点赤经 128.850° 133.280°
平近点角 290.129° 245.243°
近地点 359.33km 359.068km
远地点 360.07km 360.326km
周期 91.736分钟 91.736分钟
每日圈数 15.697203 15.697212
详细信息
固有亮度:
5
最大亮度:
0.3
卫星平台:
Starlink v2.0 mini
覆盖范围:
全球
运营商:
太空探索技术公司
运营商所在国:
美国
制造商(研发单位):
太空探索技术公司
制造商所在国:
美国
使用方式:
暂无
卫星简介
星链(Starlink)计划是由太空探索技术公司(SpaceX)提出的一个巨型低轨卫星互联网星座项目,计划在2019年至2024年间在太空搭建由约1.2万颗卫星组成的“星链”网络,其中1584颗将部署在地球上空550千米处的近地轨道,并从2020年开始工作。该卫星仍在工作。
2D轨道图
3D轨道图
轨道高度分析图
轨道倾角分析图
轨道综合分析图
查看轨道综合分析图